(43526) = 2001 DD37

Discovered at Socorro on 2001-02-19 by LINEAR.

Orbit

Orbit type: Main Belt

Note: WebGL enabled browser required.

epoch2023-09-13.0
epoch JD2460200.5
perihelion date2020-06-07.67850
perihelion JD2459008.17850
argument of perihelion (°)173.14996
ascending node (°)152.38310
inclination (°)4.30563
eccentricity0.0957516
perihelion distance (AU)2.3858220
Tisserand w.r.t. Jupiter3.4
ΔV w.r.t. Earth (km/sec)9.8
semimajor axis (AU)2.6384586
mean anomaly (°)274.20274
mean daily motion (°/day)0.22997380
aphelion distance (AU)2.891
period (years)4.29
P-vector [x]0.82460897
P-vector [y]-0.52251935
P-vector [z]-0.21678002
Q-vector [x]0.56463160
Q-vector [y]0.78379343
Q-vector [z]0.25857109
absolute magnitude15.34
phase slope0.15
uncertainty0
referenceMPO 776612
observations used1218
oppositions20
arc length (days)11039
first opposition used1993
last opposition used2023
residual rms (arc-secs)0.73
perturbers coarse indicatorM-v
perturbers precise indicator003Ek
first observation date used1993-03-19.0
last observation date used2023-06-09.0
computer nameMPCLINUX
JD of orbit computation2456819.446785
perihelion JD uncertainty (days)1.1503E-04
argument of perihelion uncertainty (°)6.1312E-05
ascending node uncertainty (°)5.6571E-05
inclination uncertainty (°)5.4524E-06
eccentricity uncertainty 4.7424E-08
perihelion distance uncertainty (AU)1.2580E-07
Minimum Orbit Intersection Distances (in AU)
for orbit epoch: 2460200.5, reference: E2023-UA0
Mercury1.96969
Venus1.65989
Earth1.37337
Mars1.00434
Jupiter2.37325
Saturn6.24931
Uranus15.5675
Neptune27.2563

Observations

1225 total observations over interval: 1993 03 19.32187 – 2023 06 09.235611
These data are available for download (format description).

Date (UT) J2000 RA J2000 Dec Magn Location Ref
1993 03 19.32187 13 09 59.53 -03 03 49.7 19.0   809 – European Southern Observatory, La Silla MPS 52331
1993 03 24.28090 13 06 24.03 -02 32 43.3 18.7   809 – European Southern Observatory, La Silla MPS 52331
1993 04 18.43884 12 46 14.01 +00 02 43.0 19.0   413 – Siding Spring Observatory MPS 52331
1993 04 24.26375 12 42 04.89 +00 31 17.2 20.5 V 691 – Steward Observatory, Kitt Peak-Spacewatch MPS 79351
1993 04 24.29234 12 42 03.70 +00 31 25.0 20.1 V 691 – Steward Observatory, Kitt Peak-Spacewatch MPS 79351
1993 04 24.32046 12 42 02.51 +00 31 32.9 19.6 V 691 – Steward Observatory, Kitt Peak-Spacewatch MPS 79351
1993 04 29.21629 12 38 58.09 +00 51 49.2 20.8 V 691 – Steward Observatory, Kitt Peak-Spacewatch MPS 79351
1993 04 29.23869 12 38 57.26 +00 51 54.4 21.2 V 691 – Steward Observatory, Kitt Peak-Spacewatch MPS 79351
1993 04 29.26034 12 38 56.47 +00 51 59.2 21.5 V 691 – Steward Observatory, Kitt Peak-Spacewatch MPS 79351
1999 10 20.27168 03 26 12.92 +12 12 08.9 19.4   704 – Lincoln Laboratory ETS, New Mexico MPS 35787
1999 10 20.28737 03 26 12.14 +12 12 05.1 19.3   704 – Lincoln Laboratory ETS, New Mexico MPS 35787
1999 10 20.31874 03 26 10.81 +12 11 56.3 19.3   704 – Lincoln Laboratory ETS, New Mexico MPS 35787
1999 11 05.31816 03 13 06.43 +10 59 32.4 18.7   704 – Lincoln Laboratory ETS, New Mexico MPS 35787
1999 11 05.33486 03 13 05.51 +10 59 28.2 19.5   704 – Lincoln Laboratory ETS, New Mexico MPS 35787
1999 11 05.35153 03 13 04.41 +10 59 25.6 19.1   704 – Lincoln Laboratory ETS, New Mexico MPS 35787
1999 12 05.25171 02 48 26.26 +09 25 30.4 18.7   704 – Lincoln Laboratory ETS, New Mexico MPS 35787
1999 12 05.26615 02 48 25.75 +09 25 27.6 18.7   704 – Lincoln Laboratory ETS, New Mexico MPS 35787
1999 12 05.28052 02 48 25.10 +09 25 27.8 18.3   704 – Lincoln Laboratory ETS, New Mexico MPS 35787
2001 01 21.38144 09 57 59.70 +10 49 52.6 18.8   704 – Lincoln Laboratory ETS, New Mexico MPS 27044
2001 01 21.39648 09 57 59.06 +10 49 57.6 19.0   704 – Lincoln Laboratory ETS, New Mexico MPS 27044
2001 01 21.41150 09 57 58.45 +10 50 01.7 19.2   704 – Lincoln Laboratory ETS, New Mexico MPS 27044
2001 01 21.42651 09 57 57.83 +10 50 05.3 19.8   704 – Lincoln Laboratory ETS, New Mexico MPS 27044
2001 02 19.24422 09 34 12.63 +13 28 18.4 18.5   704 – Lincoln Laboratory ETS, New Mexico MPS 27044
2001 02 19.25861 09 34 11.84 +13 28 22.9 19.0   704 – Lincoln Laboratory ETS, New Mexico MPS 27044
2001 02 19.27275 09 34 11.10 +13 28 27.9 19.4   704 – Lincoln Laboratory ETS, New Mexico MPS 27044
2001 02 19.28688 09 34 10.38 +13 28 32.3 19.4   704 – Lincoln Laboratory ETS, New Mexico MPS 27044
2001 02 20.38250 09 33 13.79 +13 34 43.5 19.2   704 – Lincoln Laboratory ETS, New Mexico MPS 27044
2001 02 20.39672 09 33 12.98 +13 34 48.8 19.1   704 – Lincoln Laboratory ETS, New Mexico MPS 27044
2001 02 20.41094 09 33 12.25 +13 34 53.9 19.3   704 – Lincoln Laboratory ETS, New Mexico MPS 27044
2001 02 22.24435 09 31 39.30 +13 45 06.0 18.5   704 – Lincoln Laboratory ETS, New Mexico MPS 27044
2001 02 22.25836 09 31 38.61 +13 45 10.9 18.8   704 – Lincoln Laboratory ETS, New Mexico MPS 27044
2001 02 22.27309 09 31 37.84 +13 45 15.6 18.9   704 – Lincoln Laboratory ETS, New Mexico MPS 27044
2001 02 22.28711 09 31 37.10 +13 45 20.5 18.7   704 – Lincoln Laboratory ETS, New Mexico MPS 27044
2001 02 22.30206 09 31 36.36 +13 45 25.9 19.0   704 – Lincoln Laboratory ETS, New Mexico MPS 27044
2002 05 03.37190 16 01 29.31 -13 44 48.9 19.4 V 291 – LPL/Spacewatch II MPS 62366
2002 05 03.39285 16 01 28.33 -13 44 44.5 19.7 V 291 – LPL/Spacewatch II MPS 62366
2002 05 03.41631 16 01 27.22 -13 44 39.4 20.5 V 291 – LPL/Spacewatch II MPS 62366
2002 05 04.30563 16 00 47.24 -13 41 25.5 18.8   644 – Palomar Mountain/NEAT MPS 59505
2002 05 04.36811 16 00 44.28 -13 41 12.0 18.6   644 – Palomar Mountain/NEAT MPS 59505
2002 05 04.43148 16 00 41.24 -13 40 58.1 19.8   644 – Palomar Mountain/NEAT MPS 59505
2002 05 09.34706 15 56 44.98 -13 23 09.4 18.7   704 – Lincoln Laboratory ETS, New Mexico MPS 57139
2002 05 09.35915 15 56 44.30 -13 23 07.0 18.3   704 – Lincoln Laboratory ETS, New Mexico MPS 57139
2002 05 09.37124 15 56 43.73 -13 23 05.2 18.4   704 – Lincoln Laboratory ETS, New Mexico MPS 57139
2002 05 09.38344 15 56 43.10 -13 23 02.5 18.6   704 – Lincoln Laboratory ETS, New Mexico MPS 57139
2002 05 09.39562 15 56 42.38 -13 22 59.2 18.8   704 – Lincoln Laboratory ETS, New Mexico MPS 57139
2002 05 10.29469 15 55 57.15 -13 19 46.0 19.5   644 – Palomar Mountain/NEAT MPS 57139
2002 05 10.36256 15 55 53.54 -13 19 31.4 18.2   644 – Palomar Mountain/NEAT MPS 57139
2002 05 10.42651 15 55 50.19 -13 19 17.5 18.9   644 – Palomar Mountain/NEAT MPS 57139
2002 05 23.30943 15 44 22.24 -12 36 17.7 18.4   644 – Palomar Mountain/NEAT MPS 57139
2002 05 23.32806 15 44 21.20 -12 36 14.8 18.8   644 – Palomar Mountain/NEAT MPS 57139
2002 05 23.35238 15 44 19.83 -12 36 09.9 19.8   644 – Palomar Mountain/NEAT MPS 57139
2002 06 02.20855 15 35 45.38 -12 10 40.9 18.2   644 – Palomar Mountain/NEAT MPS 57139
2002 06 02.22956 15 35 44.31 -12 10 38.2 19.0   644 – Palomar Mountain/NEAT MPS 57139
2002 06 02.25161 15 35 43.18 -12 10 35.0 19.5   644 – Palomar Mountain/NEAT MPS 57139
2002 06 09.24070 15 30 19.91 -11 58 20.5 18.4   704 – Lincoln Laboratory ETS, New Mexico MPS 57139
2002 06 09.25456 15 30 19.30 -11 58 18.9 18.9   704 – Lincoln Laboratory ETS, New Mexico MPS 57139
2002 06 09.26841 15 30 18.65 -11 58 17.8 18.9   704 – Lincoln Laboratory ETS, New Mexico MPS 57139
2002 06 09.28229 15 30 18.06 -11 58 16.5 19.1   704 – Lincoln Laboratory ETS, New Mexico MPS 57139
2003 09 03.36180 01 14 29.32 +04 07 58.6 18.9   704 – Lincoln Laboratory ETS, New Mexico MPS 84400
2003 09 03.37351 01 14 29.11 +04 07 54.5 18.6   704 – Lincoln Laboratory ETS, New Mexico MPS 84400
2003 09 03.38531 01 14 28.86 +04 07 51.8 18.9   704 – Lincoln Laboratory ETS, New Mexico MPS 84400
2003 09 03.39707 01 14 28.63 +04 07 48.0 19.0   704 – Lincoln Laboratory ETS, New Mexico MPS 84400
2003 09 08.58200 01 12 35.50 +03 41 57.6 20.0   608 – Haleakala-AMOS MPS 84875
2003 09 08.59291 01 12 35.22 +03 41 54.1 19.3   608 – Haleakala-AMOS MPS 84875
2003 09 08.60378 01 12 34.91 +03 41 50.6 19.9   608 – Haleakala-AMOS MPS 84875
2003 09 19.30274 01 06 43.23 +02 37 45.3 18.5   704 – Lincoln Laboratory ETS, New Mexico MPS 84875
2003 09 19.31524 01 06 42.76 +02 37 39.8 18.5   704 – Lincoln Laboratory ETS, New Mexico MPS 84875
2003 09 19.32737 01 06 42.17 +02 37 35.3 18.2   704 – Lincoln Laboratory ETS, New Mexico MPS 84875
2003 09 19.33944 01 06 41.71 +02 37 30.7 18.5   704 – Lincoln Laboratory ETS, New Mexico MPS 84875
2003 09 19.35164 01 06 41.18 +02 37 25.2 18.9   704 – Lincoln Laboratory ETS, New Mexico MPS 84875
2003 09 20.03838 01 06 13.81 +02 32 55.1 18.8 R 599 – Campo Imperatore-CINEOS MPS 85880
2003 09 20.04752 01 06 13.43 +02 32 51.7 18.8 R 599 – Campo Imperatore-CINEOS MPS 85880
2003 09 20.05669 01 06 13.04 +02 32 47.9 18.7 R 599 – Campo Imperatore-CINEOS MPS 85880
2003 09 20.06583 01 06 12.66 +02 32 44.3 18.6 R 599 – Campo Imperatore-CINEOS MPS 85880
2003 09 21.31011 01 05 21.94 +02 24 30.3 18.8 R 683 – Goodricke-Pigott Observatory, Tucson MPS 86754
2003 09 21.32350 01 05 21.36 +02 24 23.4 19.0 R 683 – Goodricke-Pigott Observatory, Tucson MPS 86755
2003 09 21.33690 01 05 20.76 +02 24 18.5 19.3 R 683 – Goodricke-Pigott Observatory, Tucson MPS 86755
2003 09 25.37593 01 02 25.78 +01 56 59.2 17.8   644 – Palomar Mountain/NEAT MPS 85880
2003 09 25.43981 01 02 22.78 +01 56 32.9 18.2   644 – Palomar Mountain/NEAT MPS 85880
2003 09 25.50829 01 02 19.60 +01 56 04.9 17.8   644 – Palomar Mountain/NEAT MPS 85880
2003 09 26.29450 01 01 44.24 +01 50 40.2 18.8 R 683 – Goodricke-Pigott Observatory, Tucson MPS 86755
2003 09 26.30791 01 01 43.69 +01 50 33.9 18.6 R 683 – Goodricke-Pigott Observatory, Tucson MPS 86755
2003 09 26.32124 01 01 43.01 +01 50 28.9 18.7 R 683 – Goodricke-Pigott Observatory, Tucson MPS 86755
2003 09 27.29230 01 00 58.44 +01 43 48.9 18.8 R 683 – Goodricke-Pigott Observatory, Tucson MPS 87503
2003 09 27.30572 01 00 57.66 +01 43 43.9 19.0 R 683 – Goodricke-Pigott Observatory, Tucson MPS 87503
